Starlink 30548

operational
NORAD ID: 58046 Int'l Des: 2023-156 Owner: SPXS Country: US Constellation: starlink
LEOCIRCULAR

Starlink 30548について

説明を読み込み中...

リアルタイム位置

3D地球を読み込み中...

次回通過

高度履歴

Altitude vs Time

uPlot chart will show altitude changes over time

軌道要素

1 58046U 23156U 26035.05920749 .00000692 00000-0 35485-4 0 9998
2 58046 53.1609 324.4099 0001374 121.3678 238.7457 15.30192562129836
Epoch: Feb 4, 2026 • Age: 9 hours

現在のステータス

高度 476.3 km
速度 7.63 km/s
衛星直下点 2.69°N, 27.36°E
打ち上げ日 Oct 9, 2023
運用期間 2.3 years
タイプ internet

技術仕様

分類 Payload
質量 730.00 kg
乾燥質量 700.00 kg
総質量 730.00 kg
長さ 0.30 m
直径 4.10 m
スパン 29.00 m
形状 Box + pan
製造者 SPXS
バスタイプ Starlink V2M
フェーズステータス In Orbit
所有者/国 SPXS/US

大規模コンステレーション

Loading constellations...